Location: M?rgineni
(45.7333°N, 23.1833°E)
Time: 19:15:53
(UTC+00:00)

Daily predictions for brighter satellites

Satellite Brightness Start Highest point End
(mag) Time Altitude Azimuth Time Altitude Azimuth Time Altitude Azimuth
Cosmos 2173 Rocket 4.4 17:14:08 10° SSW 17:20:28 73° W 17:26:52 10° N
Cosmos 1459 Rocket 4.3 17:15:00 10° SSW 17:21:02 75° W 17:27:07 10° N
Okean O Rocket 3.3 17:18:14 10° ESE 17:21:06 17° ENE 17:23:56 10° NNE
Cosmos 1151 Rocket 3.2 17:17:01 10° N 17:21:10 49° ENE 17:25:17 10° SSE
Cosmos 2322 Rocket 2.6 17:17:48 10° SSW 17:23:30 73° WNW 17:29:14 10° NNE
USA 306 4.3 17:23:07 10° SE 17:23:32 10° ESE 17:23:58 10° ESE
Resurs 01 Rocket 2.5 17:21:25 10° SE 17:25:16 30° ENE 17:29:08 10° N
ACS3 Solar Sail 3.0 17:21:13 10° ESE 17:26:13 25° ENE 17:31:14 10° N
Cosmos 1340 2.9 17:23:26 10° SSE 17:26:25 34° E 17:29:27 10° NNE
Meteor PRIRODA 3.4 17:25:21 10° SSE 17:28:36 58° ENE 17:31:52 10° N
USA 186 2.9 17:26:24 10° SE 17:29:06 25° ENE 17:31:50 10° NNE
ATLAS 3B R/B 3.3 17:22:50 10° NW 17:30:42 73° WSW 17:38:20 10° SSE
Cosmos 2333 Rocket 2.4 17:25:30 10° SSW 17:31:16 84° WNW 17:37:05 10° NNE
Helios 1A 3.0 17:30:09 10° NNE 17:34:09 55° E 17:38:08 10° S
Cosmos 44 Rocket 3.7 17:30:05 10° NNW 17:34:39 43° NE 17:38:58 11° ESE
Cosmos 2219 Rocket 2.2 17:30:01 10° S 17:35:36 62° ESE 17:41:13 10° NNE
Okean-O 4.5 17:34:47 10° E 17:37:13 15° ENE 17:39:39 10° NNE
BlueWalker 3 3.1 17:34:28 10° NW 17:37:53 32° NNE 17:41:17 10° E
Meteor 1-5 Rocket 4.2 17:33:16 10° S 17:38:49 75° E 17:44:36 10° NNE
SL-08 R/B 3.4 17:33:57 10° NNE 17:38:54 82° ESE 17:43:50 10° SSW
USA 229 DEB 4.1 17:32:20 10° NW 17:39:48 77° NE 17:47:55 10° SE
USA 229 4.0 17:32:29 10° NW 17:39:57 77° NE 17:48:03 10° SE
CSL-04 Rocket 4.2 17:36:25 10° SE 17:41:25 40° ENE 17:46:22 10° N
SAR-Lupe-2 4.2 17:39:11 10° S 17:42:42 59° WSW 17:46:16 10° NNW
SKYMED 3 4.4 17:38:44 10° NNE 17:42:53 81° ESE 17:46:59 10° S
SL-16 R/B 4.0 17:38:33 10° WSW 17:43:43 35° NW 17:48:55 10° NNE
Timation 2 Rocket 4.1 17:40:22 10° NNW 17:46:40 88° WSW 17:53:13 10° SSE
Cosmos 1725 Rocket 4.3 17:42:10 10° SSW 17:48:19 71° W 17:54:31 10° N
USA 267 4.4 17:43:03 10° ENE 17:48:49 35° N 17:54:36 10° NW
CZ-4B R/B 3.6 17:44:19 10° S 17:49:01 71° WSW 17:53:48 10° NNW
Cosmos 1626 2.8 17:47:34 10° NNW 17:50:26 43° W 17:53:18 10° SSW
Cosmos 1842 4.2 17:48:49 10° NNE 17:51:51 25° ENE 17:53:35 18° ESE
Cosmos 1844 Rocket 4.5 17:48:22 10° NW 17:53:21 33° WSW 17:58:20 10° SSW
SJ-6B 3.1 17:50:31 10° S 17:54:08 63° WSW 17:57:45 10° NNW
Cosmos 1766 Rocket 3.9 17:50:07 10° SSE 17:54:10 40° E 17:58:16 10° NNE
Cosmos 2322 3.8 17:50:50 10° S 17:56:14 50° ESE 18:01:41 10° NE
Cosmos 1066 Rocket 4.3 17:54:16 10° N 18:00:08 68° ENE 18:05:56 10° SSE
GEOS 3 Rocket 4.4 17:56:29 10° SSE 18:01:34 51° WSW 18:06:38 10° NW
Cosmos 1400 Rocket 2.6 18:04:18 10° N 18:08:10 70° ENE 18:11:19 14° SSE
USA 276 3.3 18:07:11 10° WNW 18:09:46 31° N 18:11:16 18° NE
CZ-4 R/B 1.8 18:08:24 10° S 18:12:07 57° W 18:15:55 10° NNW
Cosmos 1707 3.1 18:10:24 10° N 18:13:42 35° ENE 18:14:39 30° ESE
Cosmos 1733 4.5 18:15:43 20° ENE 18:15:43 20° ENE 18:17:32 10° NE
COSMOS 2428 2.7 18:09:39 10° S 18:15:12 57° ESE 18:20:49 10° NNE
CSL-04 Debris 4.1 18:10:52 10° SSE 18:16:20 83° ENE 18:21:50 10° NNW
Cosmos 1937 Rocket 4.4 18:11:35 10° NNW 18:16:40 50° WSW 18:21:45 10° S
Cosmos 1818 3.5 18:11:17 10° SSW 18:16:44 84° ESE 18:22:15 10° NE
Cosmos 1726 2.3 18:14:20 10° SSW 18:17:05 50° W 18:19:52 10° N
Cosmos 2233 Rocket 4.5 18:11:27 10° SSW 18:17:31 63° W 18:23:39 10° N
Cosmos 1536 3.3 18:20:01 32° ESE 18:20:40 34° E 18:24:09 10° NNE
Lacrosse 4 Rocket 1.4 18:17:49 10° NNW 18:22:12 87° ENE 18:24:34 26° SSE
Cosmos 1513 Rocket 4.4 18:16:38 10° S 18:22:34 61° E 18:28:33 10° NNE
Meteor 1-14 Rocket 4.1 18:17:16 10° S 18:22:44 65° E 18:28:12 10° NNE
Cosmos 1943 Rocket 3.2 18:17:57 10° N 18:22:47 30° NE 18:24:57 23° E
USA 59 Rocket 0.4 18:19:40 10° NNW 18:23:24 52° NE 18:25:31 29° ESE
KORONAS-FOTON 3.6 18:20:09 10° N 18:23:50 64° E 18:25:28 30° SSE
Cosmos 1464 Rocket 4.2 18:20:04 10° SSE 18:26:05 50° E 18:32:10 10° NNE
Cosmos 1356 Rocket 3.6 18:22:32 10° N 18:26:37 50° ENE 18:28:04 34° SE
Meteor 1-11 Rocket 4.1 18:27:19 22° SE 18:30:19 39° E 18:35:28 10° NNE
Cosmos 1328 Rocket 3.6 18:26:17 10° NNW 18:30:35 78° W 18:34:04 15° S
Terra 3.1 18:30:29 23° ENE 18:31:06 23° ENE 18:34:48 10° NNE
Meteor 1-4 Rocket 1.6 18:28:43 10° N 18:31:19 74° NE 18:31:19 74° NE
Cosmos 1743 4.3 18:29:30 10° SW 18:32:46 34° WNW 18:36:05 10° N
Cosmos 1674 2.8 18:29:50 10° NNW 18:33:08 59° W 18:35:10 21° S
Ariane Rocket 4.4 18:34:37 20° ENE 18:35:16 20° ENE 18:38:54 10° NNE
Cosmos 1125 Rocket 4.2 18:32:21 10° N 18:37:10 37° ENE 18:38:31 31° E
Cosmos 2278 Rocket 2.4 18:33:18 10° NNW 18:38:53 55° ENE 18:41:07 34° ESE
Kosmos-1783 4.2 18:36:40 10° SW 18:38:14 27° WSW 18:38:14 27° WSW
CZ-4B R/B 3.6 18:33:55 10° S 18:39:22 62° WSW 18:44:46 10° NNW
NOSS 2-1 (C) 3.5 18:36:04 10° NW 18:39:52 72° NE 18:41:25 41° SE
ERS-1 Rocket 3.7 18:39:39 31° E 18:40:39 34° ENE 18:45:10 10° N
Cosmos 2034 Rocket 4.2 18:41:53 28° SSE 18:44:49 47° E 18:50:42 10° NNE
SPOT 5 2.8 18:45:11 41° SE 18:46:34 60° ENE 18:51:06 10° N
USA 290 2.6 18:44:10 10° NNW 18:47:00 52° NNE 18:47:00 52° NNE
TSX-5 3.7 18:45:19 10° NW 18:48:22 52° WSW 18:48:42 49° SW
Cosmos 1072 Rocket 4.5 18:42:59 10° S 18:49:23 81° E 18:55:48 10° N
NOSS 0 Rocket 3.8 18:47:28 10° SSW 18:53:39 69° ESE 18:59:52 10° NNE
Okean 3 Rocket 3.5 18:51:02 19° S 18:54:11 88° W 18:58:41 10° N
USA 306 3.3 18:52:08 10° SW 18:54:09 36° SW 18:54:09 36° SW
USA 215 3.4 18:49:59 10° ENE 18:56:14 45° SE 19:02:26 10° SSW
Okean O Rocket 2.1 18:54:28 25° S 18:56:54 58° W 19:01:17 10° NNW
Resurs 01 Rocket 3.4 18:57:46 10° SSW 19:01:38 29° W 19:05:32 10° NW
Aureole 3 Rocket 4.1 19:01:28 23° SSE 19:06:25 63° E 19:12:04 10° NNE
Cosmos 2237 Rocket 2.1 19:04:46 36° S 19:06:56 60° ESE 19:12:28 10° NNE
MOS 1 Rocket 3.4 19:06:49 59° SE 19:07:38 71° ENE 19:12:47 10° N
ACS3 Solar Sail 2.2 19:05:09 20° S 19:09:45 66° W 19:16:09 10° NNW
Okean-O 2.8 19:12:12 53° SSW 19:13:03 68° WSW 19:17:27 10° NNW
NOSS 2-1 (E) 3.9 19:11:58 10° NW 19:15:55 61° SW 19:16:32 55° SSW
BlueWalker 3 2.4 19:12:28 10° WNW 19:15:32 56° WNW 19:15:32 56° WNW
Cosmos 1515 Rocket 4.1 19:12:21 10° NNW 19:16:35 55° W 19:17:32 44° SW
Sich 1 3.7 19:20:26 42° NNE 19:20:26 42° NNE 19:23:25 10° NNE
MetOp-B 4.2 19:17:45 48° S 19:19:16 77° WSW 19:24:40 10° NNW
Cosmos 2219 Rocket 4.4 19:15:19 10° WSW 19:19:59 25° NW 19:24:40 10° N
SL-24 R/B 4.3 19:25:00 71° S 19:25:34 87° W 19:30:28 10° N
NOSS 2-1 (D) 4.3 19:22:04 10° NW 19:25:57 47° SW 19:26:16 46° SW
USA 267 3.6 19:29:00 40° E 19:31:05 56° NNE 19:37:27 10° NW
Cosmos 1500 Rocket 4.0 19:34:22 60° NNW 19:34:22 60° NNW 19:38:02 10° N
IRS-1C Rocket 4.0 19:33:38 73° SSW 19:34:06 81° WSW 19:39:25 10° NNW
Cosmos 1980 3.7 19:29:57 10° SSW 19:35:37 79° WNW 19:41:21 10° NNE
Cosmos 2369 Rocket 3.6 19:35:07 10° N 19:39:53 26° NE 19:39:54 26° NE
Spot 2 Rocket 3.5 19:41:52 73° N 19:41:52 73° N 19:46:27 10° NNW
Cosmos 2298 Rocket 4.2 19:36:59 10° NNW 19:41:45 63° NNE 19:41:45 63° NNE
USA 32 4.2 19:38:06 10° N 19:43:19 68° W 19:43:42 65° WSW
Cosmos 2150 Rocket 4.2 19:42:15 10° NNW 19:46:42 62° N 19:46:42 62° N
Cosmos 1315 Rocket 4.2 19:45:29 10° NNW 19:48:17 36° WNW 19:48:17 36° WNW
Cosmos 1570 Rocket 4.4 19:49:52 50° WSW 19:50:57 63° WNW 19:56:12 10° NNE
NOSS 3-4 (A) 4.5 19:53:05 10° NNW 19:59:25 42° NE 20:00:35 39° ENE
NOSS 3-4 (C) 4.5 19:53:11 10° NNW 19:59:30 42° NE 20:00:41 39° ENE
Lacrosse 4 Rocket 4.2 19:58:45 10° W 19:59:41 11° WSW 20:00:26 10° WSW
SL-16 R/B 4.0 20:07:18 21° NE 20:07:18 21° NE 20:09:07 10° NE
Cosmos 1092 Rocket 4.2 19:58:59 10° NNW 20:05:14 66° W 20:05:51 62° SW
Cosmos 1943 Rocket 2.8 20:01:26 10° NW 20:06:27 47° W 20:06:27 47° W
Terra 2.9 20:09:10 40° WNW 20:09:10 40° WNW 20:12:56 10° NNW
Cosmos 2026 Rocket 4.3 20:05:52 10° NNW 20:11:59 57° W 20:12:32 55° WSW
USA 59 Rocket 2.3 20:09:29 10° WNW 20:11:54 20° WSW 20:11:54 20° WSW
Ariane Rocket 3.7 20:14:46 49° NW 20:14:46 49° NW 20:18:46 10° NNW
SPOT 3 Rocket 4.3 20:17:15 50° NW 20:17:15 50° NW 20:21:21 10° NNW
Cosmos 1634 Rocket 4.1 20:17:05 68° W 20:17:17 68° W 20:23:37 10° N
ERS-1 Rocket 4.4 20:19:35 32° W 20:19:35 32° W 20:23:52 10° NNW
Cosmos 2278 Rocket 3.8 20:18:05 10° NW 20:22:34 24° WSW 20:22:58 24° WSW
USA 215 3.5 20:32:57 10° NE 20:39:25 65° NNW 20:45:52 10° WSW
Cosmos 2237 Rocket 4.1 20:46:45 10° WSW 20:51:24 26° NW 20:56:03 10° N
USA 267 4.2 21:16:20 39° WNW 21:16:20 39° WNW 21:20:31 10° WNW
Cosmos 2369 Rocket 3.8 21:18:41 10° NNW 21:21:39 31° NW 21:21:39 31° NW
SL-16 R/B 4.0 21:49:08 27° NNW 21:49:08 27° NNW 21:52:56 10° N
Cosmos 2344 4.4 22:00:36 10° NW 22:08:34 56° NE 22:10:20 50° ENE
ATLAS 2AS CENTAUR R/B 4.0 22:36:13 10° NNW 22:42:20 33° NNE 22:43:40 30° NE
Cosmos 1980 Rocket 3.7 23:27:34 10° N 23:31:53 31° NE 23:31:53 31° NE
CZ-2C R/B 4.2 23:40:58 31° NNE 23:40:58 31° NNE 23:43:55 10° N
IDEFIX/ARIANE 42P 4.3 23:40:01 10° NNE 23:42:56 29° NE 23:42:56 29° NE
USA 281 4.0 23:47:53 43° E 23:48:59 47° NE 23:55:14 10° NNW
